{"data":{"norad_id":68620,"epoch":"2026-05-25T04:00:03.998880Z","epoch_age_seconds":57294,"freshness":"FRESH","line1":"1 68620U 26073U   26145.16671295 -.01940207  00000+0 -22944-1 0  9991","line2":"2 68620  97.2846 344.7410 0001850  76.9618  65.0120 15.64411771  6001","mean_motion":15.64411771,"eccentricity":0.000185,"inclination_deg":97.2846,"raan_deg":344.741,"arg_perigee_deg":76.9618,"mean_anomaly_deg":65.012,"bstar":-0.022944,"rev_number":600,"period_min":92.04737695623,"perigee_km":373.68170993541,"apogee_km":376.1803451056,"semimajor_km":6753.0680275205,"source":"CELESTRAK","updated_at":"2026-05-25T13:38:21.989202Z"}}